Location: downtown San Diego
(32.7310°N, 117.1990°W)
Time: 18:03:18
(UTC-07:00)

Cosmos 1818 - Pass Details

Date: 19 May 2017
Orbit: 777 x 796 km, 65.0° (Epoch: 26 May)

Event Time Altitude Azimuth Distance (km) Brightness Sun altitude
Rises 20:44:47 0° 186° (S) 3,265 6.5 -12.0°
Reaches altitude 10° 20:47:19 10° 178° (S) 2,343 5.7 -12.5°
Maximum altitude 20:52:16 38° 112° (ESE) 1,197 4.0 -13.3°
Drops below altitude 10° 20:57:15 10° 45° (NE) 2,364 5.9 -14.2°
Sets 20:59:49 0° 38° (NE) 3,299 6.8 -14.6°
